Location: Bathurst
(33.4193°S, 149.5775°E)
Time: 12:32:25
(UTC+10:00)

Transit 4A - Visible Passes

Search period start: 13 June 2021 00:00
Search period end: 23 June 2021 00:00
Orbit: 871 x 973 km, 66.8° (Epoch: 12 June)

Date Brightness Start Highest point End Pass type
(mag) Time Alt. Az. Time Alt. Az. Time Alt. Az.
14 Jun 10.4 06:20:23 10° SSE 06:22:36 12° SE 06:24:47 10° ESE visible
15 Jun 10.2 06:28:14 10° S 06:32:21 17° SE 06:36:26 10° E visible
16 Jun 9.9 06:36:48 10° S 06:42:00 25° SE 06:47:07 10° ENE visible
19 Jun 10.4 05:19:55 10° SSE 05:22:59 14° SE 05:26:02 10° ESE visible
20 Jun 10.1 05:28:09 10° S 05:32:43 20° SE 05:37:13 10° E visible
21 Jun 9.7 05:36:51 10° S 05:42:19 29° SE 05:47:43 10° ENE visible
22 Jun 9.1 05:45:46 10° SSW 05:51:50 42° ESE 05:57:46 10° NE visible
